[[{"header":{"parameterUnit":"m.s-1","parameterCategory":2,"la1":30.2991,"la2":30.254,"lo1":-89.0895,"lo2":-89.0444,"dy":0.0017,"dx":0.0017,"nx":28,"ny":28,"refTime":"2024-06-24T21:00:00:Z","depth":"0","parameterNumber":2,"parameterNumberName":"U-component_of_CURRENTS"},"data":[0,0,0,0,0,0,0,0,0,0,0,0,0,0,0,0,0,0,0,0,0,0,0,0,0,0,0,0,0,0,0,0,0,0,0,0,0,0,0,0,0,0,0,0,0,0,0,0,0,0,0,0,0,0,0,0,0,0,-0.2544,-0.2545,0,-0.2528,-0.2528,-0.2528,-0.2445,-0.2443,-0.2442,-0.244,-0.2341,-0.234,-0.2339,0,0,0,0,0,0,0,0,0,0,0,0,0,-0.2531,-0.2532,-0.2544,-0.2545,-0.2545,-0.2529,-0.2528,-0.2528,-0.2445,-0.2443,-0.2441,-0.2439,-0.2341,-0.234,-0.2339,0,0,0,0,0,0,0,0,0,0,0,0,0,-0.2526,-0.2532,-0.2544,-0.2504,-0.25,-0.2529,-0.2528,-0.2527,-0.2446,-0.2443,-0.2441,-0.2438,-0.2342,-0.234,-0.2338,-0.2379,0,0,-0.2333,-0.2333,0,0,0,0,0,0,0,0,-0.2526,-0.2526,-0.251,-0.2507,-0.2503,-0.2489,-0.2487,-0.2475,-0.2446,-0.2463,-0.244,-0.2437,-0.2386,-0.2381,-0.238,-0.2374,-0.237,-0.2333,-0.2332,-0.2332,-0.2331,0,0,0,0,0,0,0,-0.2526,-0.2526,-0.2535,-0.251,-0.2506,-0.2496,-0.2492,-0.2485,-0.2435,-0.2462,-0.2456,-0.246,-0.2383,-0.2382,-0.2377,-0.2369,-0.2333,-0.2332,-0.2331,-0.233,-0.2333,-0.2334,0,0,0,0,0,0,-0.2536,-0.2527,-0.2536,-0.2535,-0.2512,-0.2499,-0.2494,-0.2493,-0.2437,-0.2428,-0.2463,-0.2457,-0.2386,-0.2379,-0.2373,-0.2381,-0.2332,-0.233,-0.2329,-0.2332,-0.2333,-0.2334,0,0,0,0,0,0,-0.2536,-0.2537,-0.2536,-0.2533,-0.2532,-0.2502,-0.2502,-0.2495,-0.2483,-0.2439,-0.2427,-0.2457,-0.2384,-0.2376,-0.2355,-0.2378,-0.2329,-0.2328,-0.233,-0.2332,-0.2333,-0.242,0,0,0,0,0,0,-0.2536,-0.2537,-0.2537,-0.2534,-0.2533,-0.2544,-0.2504,-0.2496,-0.2491,-0.2483,-0.2431,-0.242,-0.2381,-0.2358,-0.2354,-0.2374,-0.2327,-0.2329,-0.2331,-0.2333,-0.2416,-0.2424,-0.2431,0,0,0,0,0,-0.2535,-0.254,-0.2537,-0.2538,-0.2535,-0.2545,-0.2543,-0.2511,-0.2494,-0.2491,-0.2455,-0.2421,-0.2367,-0.2358,-0.2353,-0.2373,-0.2328,-0.233,-0.2333,-0.2412,-0.2423,-0.2431,0,0,0,0,0,0,-0.2533,-0.2532,-0.2528,-0.2532,-0.2538,-0.2531,-0.2527,-0.252,-0.2495,-0.2482,-0.2437,-0.2424,-0.2412,-0.2386,-0.2378,-0.2379,-0.2342,-0.2343,-0.2404,-0.2414,-0.2421,-0.2449,-0.2325,0,0,0,0,0,-0.2538,-0.2537,-0.2544,-0.2548,-0.2551,-0.2546,-0.2546,-0.2533,-0.2517,-0.2503,-0.2466,-0.2435,-0.2425,-0.2411,-0.2387,-0.2397,-0.2385,-0.2405,-0.2413,-0.242,-0.2439,-0.2449,-0.246,-0.2342,-0.2341,-0.2341,0,0,-0.2537,-0.254,-0.2537,-0.2548,-0.2545,-0.2558,-0.2537,-0.2541,-0.2552,-0.2499,-0.2482,-0.2458,-0.2432,-0.2431,-0.2425,-0.2408,-0.2445,-0.2423,-0.2429,-0.2444,-0.2453,-0.2465,-0.2475,-0.2343,-0.2343,-0.2343,0,0,-0.2538,-0.2541,-0.2538,-0.255,-0.2559,-0.2565,-0.2571,-0.2567,-0.2558,-0.2561,-0.2525,-0.2522,-0.2489,-0.2483,-0.2479,-0.2523,-0.2485,-0.2507,-0.2572,-0.2583,-0.2593,-0.2602,-0.2594,-0.2602,-0.2514,-0.2514,-0.2514,0,-0.2538,-0.2538,-0.2542,-0.2552,-0.2565,-0.2572,-0.2586,-0.2595,-0.2582,-0.2595,-0.2557,-0.2553,-0.2523,-0.2558,-0.2566,-0.2544,-0.2533,-0.2539,-0.2595,-0.2603,-0.2611,-0.2601,-0.2608,-0.2518,-0.2518,-0.2517,-0.2517,0,-0.2533,-0.2544,-0.2548,-0.2563,-0.2583,-0.2596,-0.2621,-0.2633,-0.2632,-0.2644,-0.2666,-0.2638,-0.264,-0.2633,-0.2613,-0.2661,-0.2629,-0.2602,-0.2574,-0.2628,-0.2613,-0.262,-0.2525,-0.2523,-0.2522,-0.252,0,0,-0.2508,-0.2537,-0.2537,-0.2557,-0.2591,-0.261,-0.2649,-0.2693,-0.2727,-0.2724,-0.2763,-0.2766,-0.2763,-0.2759,-0.2738,-0.2752,-0.279,-0.2706,-0.2704,-0.2705,-0.28,-0.2656,-0.2648,-0.2769,-0.2771,-0.2773,-0.2766,0,-0.2501,-0.2519,-0.2542,-0.258,-0.2597,-0.264,-0.2682,-0.273,-0.2757,-0.2792,-0.2814,-0.2827,-0.2809,-0.2807,-0.283,-0.2787,-0.2811,-0.2793,-0.2742,-0.2741,-0.2612,-0.2652,-0.2433,-0.2397,-0.2771,-0.2772,-0.2773,0,-0.2477,-0.2502,-0.2524,-0.2601,-0.2614,-0.2644,-0.2726,-0.2762,-0.2836,-0.2859,-0.2907,-0.2909,-0.2944,-0.2906,-0.2914,-0.2899,-0.2872,-0.2843,-0.2842,-0.2685,-0.2608,-0.2404,-0.2394,-0.2253,-0.2781,-0.2781,-0.278,0,-0.2439,-0.2493,-0.2512,-0.2532,-0.2613,-0.2647,-0.2693,-0.2776,-0.2815,-0.2892,-0.292,-0.2975,-0.2968,-0.2974,-0.2936,-0.292,-0.2928,-0.2888,-0.2747,-0.2736,-0.2528,-0.2494,-0.2379,-0.2916,-0.2916,-0.2916,-0.2917,0,-0.2415,-0.2437,-0.2496,-0.2508,-0.2557,-0.2626,-0.2682,-0.2745,-0.2827,-0.2877,-0.2941,-0.2973,-0.2982,-0.2989,-0.2966,-0.287,-0.2955,-0.2769,-0.273,-0.2548,-0.2518,-0.2367,-0.2427,-0.2916,-0.2916,-0.2916,-0.2916,0,-0.2364,-0.2394,-0.2427,-0.2507,-0.253,-0.2562,-0.2652,-0.2701,-0.2785,-0.2848,-0.287,-0.2955,-0.2947,-0.296,-0.2941,-0.2863,-0.2729,-0.2771,-0.2548,-0.2481,-0.2155,-0.2231,-0.2226,-0.2177,-0.2579,-0.2576,-0.2573,0,-0.2337,-0.2341,-0.24,-0.2417,-0.2448,-0.2502,-0.2545,-0.2652,-0.2708,-0.2829,-0.2857,-0.2887,-0.29,-0.2826,-0.2686,-0.2603,-0.2624,-0.2347,-0.2271,-0.2111,-0.2169,-0.2259,-0.2227,-0.2034,-0.2027,-0.2021,-0.2016,0,-0.2287,-0.2296,-0.2316,-0.2348,-0.2384,-0.2431,-0.2503,-0.2543,-0.2671,-0.2733,-0.2804,-0.2822,-0.2723,-0.2493,-0.2359,-0.2295,-0.2221,-0.2218,-0.2114,-0.1791,-0.1825,-0.1764,-0.2072,-0.1964,-0.1969,-0.1973,-0.1976,-0.1978,-0.2233,-0.2223,-0.2236,-0.2266,-0.2306,-0.2346,-0.2353,-0.2452,-0.2514,-0.2584,-0.2676,-0.2578,-0.2276,-0.202,-0.1966,-0.1578,-0.1861,-0.1455,-0.1581,-0.1697,-0.1593,-0.1779,-0.1585,-0.1588,-0.159,-0.1593,-0.1595,0,-0.2149,-0.2139,-0.2162,-0.2175,-0.218,-0.2238,-0.231,-0.2307,-0.2342,-0.2336,-0.2376,-0.1942,-0.1655,-0.1383,-0.0951,-0.0893,-0.095,-0.0928,-0.0983,-0.0997,-0.1148,-0.1052,-0.0656,-0.0656,-0.0656,-0.0657,-0.0657,-0.0657,-0.2096,-0.2056,-0.2067,-0.2032,-0.2047,-0.2012,-0.2025,-0.2053,-0.2003,-0.1792,-0.1508,-0.1379,-0.0956,-0.0711,-0.0437,-0.0453,-0.0517,-0.0583,-0.0727,-0.0762,-0.0819,-0.0874,-0.0785,-0.034,-0.0341,-0.0418,-0.0419,-0.0419]},{"header":{"parameterUnit":"m.s-1","parameterCategory":2,"la1":30.2991,"la2":30.254,"lo1":-89.0895,"lo2":-89.0444,"dy":0.0017,"dx":0.0017,"nx":28,"ny":28,"refTime":"2024-06-24T21:00:00:Z","depth":"0","parameterNumber":3,"parameterNumberName":"V-component_of_CURRENTS"},"data":[0,0,0,0,0,0,0,0,0,0,0,0,0,0,0,0,0,0,0,0,0,0,0,0,0,0,0,0,0,0,0,0,0,0,0,0,0,0,0,0,0,0,0,0,0,0,0,0,0,0,0,0,0,0,0,0,0,0,-0.1734,-0.1735,0,-0.1728,-0.1727,-0.1727,-0.1677,-0.1676,-0.1675,-0.1674,-0.1504,-0.1501,-0.1497,0,0,0,0,0,0,0,0,0,0,0,0,0,-0.1695,-0.1696,-0.1734,-0.1735,-0.1735,-0.1728,-0.1727,-0.1727,-0.1677,-0.1676,-0.1675,-0.1674,-0.1505,-0.1501,-0.1497,0,0,0,0,0,0,0,0,0,0,0,0,0,-0.17,-0.1697,-0.1734,-0.1711,-0.1709,-0.1728,-0.1727,-0.1727,-0.1677,-0.1676,-0.1674,-0.1673,-0.1507,-0.1501,-0.1496,-0.1492,0,0,-0.148,-0.1477,0,0,0,0,0,0,0,0,-0.17,-0.1702,-0.1714,-0.1713,-0.171,-0.1704,-0.1652,-0.1641,-0.1678,-0.1686,-0.1674,-0.1672,-0.1559,-0.1549,-0.1549,-0.1484,-0.1477,-0.1479,-0.1476,-0.1474,-0.1472,0,0,0,0,0,0,0,-0.17,-0.1702,-0.1729,-0.1715,-0.1712,-0.1698,-0.1697,-0.165,-0.1626,-0.1686,-0.1683,-0.1687,-0.1556,-0.1555,-0.1545,-0.1475,-0.1479,-0.1474,-0.1471,-0.1469,-0.1384,-0.1385,0,0,0,0,0,0,-0.1709,-0.1702,-0.1729,-0.1729,-0.1705,-0.17,-0.1699,-0.1705,-0.163,-0.1619,-0.1688,-0.1684,-0.1565,-0.1551,-0.1538,-0.1531,-0.1474,-0.1468,-0.1465,-0.1383,-0.1384,-0.1385,0,0,0,0,0,0,-0.1708,-0.1711,-0.173,-0.1717,-0.1718,-0.1703,-0.171,-0.1706,-0.1698,-0.1634,-0.1619,-0.1683,-0.1563,-0.1546,-0.15,-0.1523,-0.1466,-0.1461,-0.1382,-0.1383,-0.1385,-0.1513,0,0,0,0,0,0,-0.1707,-0.1711,-0.1719,-0.1718,-0.172,-0.1751,-0.1712,-0.1707,-0.1704,-0.1699,-0.1625,-0.1609,-0.1561,-0.1509,-0.1495,-0.1515,-0.1457,-0.138,-0.1382,-0.1384,-0.1508,-0.1519,-0.1529,0,0,0,0,0,-0.1705,-0.1732,-0.1719,-0.1723,-0.1731,-0.1753,-0.1753,-0.1734,-0.1706,-0.1717,-0.1661,-0.161,-0.151,-0.1505,-0.1489,-0.1507,-0.138,-0.1382,-0.1384,-0.1503,-0.1517,-0.1529,0,0,0,0,0,0,-0.1715,-0.1729,-0.1716,-0.1742,-0.1749,-0.1745,-0.1759,-0.1738,-0.1707,-0.1692,-0.1619,-0.16,-0.1571,-0.152,-0.1516,-0.1488,-0.1438,-0.1437,-0.1534,-0.1546,-0.1557,-0.1582,-0.1452,0,0,0,0,0,-0.1724,-0.1748,-0.1751,-0.1772,-0.178,-0.1766,-0.177,-0.1757,-0.1733,-0.1718,-0.1666,-0.161,-0.1572,-0.1543,-0.15,-0.148,-0.1438,-0.1482,-0.1492,-0.1501,-0.1511,-0.1464,-0.1471,-0.1392,-0.1392,-0.1392,0,0,-0.1732,-0.1745,-0.1756,-0.1776,-0.1779,-0.1808,-0.1764,-0.1781,-0.1796,-0.1702,-0.1696,-0.1641,-0.1574,-0.156,-0.1542,-0.1516,-0.1507,-0.1504,-0.1513,-0.1517,-0.1467,-0.1474,-0.1481,-0.1394,-0.1394,-0.1393,0,0,-0.1778,-0.1775,-0.1815,-0.1828,-0.1843,-0.1839,-0.1845,-0.1839,-0.1828,-0.1819,-0.1758,-0.1718,-0.1658,-0.1622,-0.1594,-0.1632,-0.1565,-0.1617,-0.1687,-0.1642,-0.1648,-0.1653,-0.1636,-0.1638,-0.1621,-0.1621,-0.1621,0,-0.1784,-0.1833,-0.1829,-0.1871,-0.189,-0.1857,-0.1899,-0.1894,-0.187,-0.1862,-0.1831,-0.175,-0.1693,-0.1672,-0.1694,-0.1656,-0.1627,-0.1649,-0.1657,-0.1661,-0.1663,-0.1644,-0.1645,-0.1628,-0.1627,-0.1626,-0.1626,0,-0.1862,-0.1897,-0.1924,-0.1966,-0.1985,-0.2016,-0.2012,-0.2015,-0.1989,-0.1969,-0.194,-0.1868,-0.1816,-0.18,-0.1761,-0.1757,-0.1731,-0.1679,-0.163,-0.1679,-0.1656,-0.1655,-0.1637,-0.1635,-0.1633,-0.1631,0,0,-0.1876,-0.1962,-0.1969,-0.2004,-0.2035,-0.2058,-0.2091,-0.2106,-0.2114,-0.2076,-0.2074,-0.2021,-0.1966,-0.1931,-0.1868,-0.1836,-0.1843,-0.1781,-0.1775,-0.1774,-0.1767,-0.1626,-0.161,-0.1791,-0.1791,-0.179,-0.1753,0,-0.1932,-0.2036,-0.2059,-0.2138,-0.2186,-0.2178,-0.2211,-0.2213,-0.2193,-0.218,-0.2106,-0.2071,-0.202,-0.1988,-0.1955,-0.1858,-0.1841,-0.186,-0.171,-0.1707,-0.1582,-0.1604,-0.1411,-0.1349,-0.1751,-0.1751,-0.175,0,-0.1992,-0.2057,-0.2157,-0.2228,-0.2246,-0.2282,-0.2316,-0.2336,-0.2312,-0.2288,-0.2244,-0.2176,-0.2126,-0.2063,-0.1956,-0.197,-0.1894,-0.1823,-0.1819,-0.1637,-0.1561,-0.1357,-0.133,-0.1047,-0.1747,-0.1747,-0.1748,0,-0.2011,-0.2114,-0.2198,-0.2225,-0.2303,-0.2335,-0.236,-0.2365,-0.2374,-0.2341,-0.2325,-0.2256,-0.2191,-0.2105,-0.1971,-0.1964,-0.1845,-0.1802,-0.1614,-0.1605,-0.1384,-0.1353,-0.1065,-0.1738,-0.1738,-0.1738,-0.1738,0,-0.2057,-0.2116,-0.2214,-0.226,-0.234,-0.237,-0.2421,-0.2434,-0.2429,-0.2428,-0.2368,-0.2337,-0.2194,-0.2104,-0.2003,-0.18,-0.1865,-0.1631,-0.1576,-0.1424,-0.1399,-0.1094,-0.1061,-0.1736,-0.1737,-0.1737,-0.1737,0,-0.2061,-0.2129,-0.2226,-0.2327,-0.2357,-0.2406,-0.2463,-0.2493,-0.2479,-0.2473,-0.246,-0.2382,-0.2258,-0.2125,-0.196,-0.1802,-0.148,-0.1568,-0.1414,-0.1339,-0.0859,-0.0845,-0.0652,-0.051,-0.1341,-0.1337,-0.1334,0,-0.2066,-0.2131,-0.2266,-0.233,-0.2379,-0.2448,-0.2498,-0.2514,-0.2535,-0.2496,-0.2493,-0.2377,-0.2296,-0.2009,-0.1701,-0.1473,-0.135,-0.1139,-0.1068,-0.0796,-0.0741,-0.0779,-0.0678,-0.0851,-0.0844,-0.0838,-0.0834,0,-0.208,-0.2138,-0.2223,-0.2371,-0.2449,-0.2521,-0.2582,-0.26,-0.2598,-0.2579,-0.2531,-0.2464,-0.2132,-0.1748,-0.1396,-0.1228,-0.0902,-0.1011,-0.0749,-0.0349,-0.0354,-0.02,-0.095,-0.0783,-0.0788,-0.0792,-0.0795,-0.0797,-0.2073,-0.2143,-0.2279,-0.2416,-0.2505,-0.2587,-0.2631,-0.266,-0.2672,-0.2574,-0.2519,-0.2241,-0.1707,-0.1167,-0.0989,-0.031,-0.0534,-0.0081,-0.01,-0.0174,0.0026,-0.0625,-0.0373,-0.0375,-0.0377,-0.0379,-0.0381,0,-0.2071,-0.2185,-0.232,-0.248,-0.2582,-0.2621,-0.2689,-0.2694,-0.2692,-0.2417,-0.2308,-0.1513,-0.0984,-0.0443,0.0367,0.0636,0.0628,0.0749,0.0778,0.0829,0.0291,0.039,0.0848,0.0848,0.0848,0.0847,0.0847,0.0847,-0.2075,-0.2217,-0.232,-0.252,-0.2618,-0.2717,-0.2745,-0.2711,-0.2508,-0.1976,-0.1371,-0.0912,-0.0043,0.0719,0.1418,0.1458,0.1596,0.1514,0.1534,0.1241,0.1164,0.109,0.1205,0.1825,0.1826,0.2165,0.2168,0.2171]}],[{"header":{"parameterUnit":"m.s-1","parameterCategory":2,"la1":30.2991,"la2":30.254,"lo1":-89.0895,"lo2":-89.0444,"dy":0.0017,"dx":0.0017,"nx":28,"ny":28,"refTime":"2024-06-24T21:00:00:Z","depth":"2","parameterNumber":2,"parameterNumberName":"U-component_of_CURRENTS"},"data":[0,0,0,0,0,0,0,0,0,0,0,0,0,0,0,0,0,0,0,0,0,0,0,0,0,0,0,0,0,0,0,0,0,0,0,0,0,0,0,0,0,0,0,0,0,0,0,0,0,0,0,0,0,0,0,0,0,0,-0.161,-0.161,0,-0.1647,-0.1647,-0.1647,-0.1658,-0.1659,-0.1659,-0.1659,-0.173,-0.1731,-0.1733,0,0,0,0,0,0,0,0,0,0,0,0,0,-0.1739,-0.1735,-0.1609,-0.161,-0.1611,-0.1647,-0.1647,-0.1647,-0.1658,-0.1659,-0.1659,-0.1659,-0.1729,-0.1731,-0.1733,0,0,0,0,0,0,0,0,0,0,0,0,0,-0.1715,-0.1734,-0.1609,-0.1625,-0.1627,-0.1647,-0.1647,-0.1647,-0.1658,-0.1659,-0.1659,-0.166,-0.1728,-0.1731,-0.1733,-0.1739,0,0,-0.174,-0.1741,0,0,0,0,0,0,0,0,-0.1716,-0.1709,-0.1622,-0.1624,-0.1627,-0.1653,-0.1719,-0.1681,-0.1658,-0.1641,-0.1659,-0.166,-0.171,-0.1714,-0.1712,-0.1742,-0.1745,-0.1741,-0.1742,-0.1743,-0.1744,0,0,0,0,0,0,0,-0.1717,-0.1709,-0.1619,-0.1623,-0.1626,-0.1697,-0.1691,-0.1712,-0.1669,-0.1643,-0.1645,-0.1657,-0.1711,-0.171,-0.1714,-0.1746,-0.1741,-0.1743,-0.1744,-0.1745,-0.1816,-0.1816,0,0,0,0,0,0,-0.1711,-0.1708,-0.1618,-0.1621,-0.1679,-0.1693,-0.1687,-0.164,-0.1668,-0.1674,-0.1657,-0.1658,-0.1705,-0.1711,-0.1717,-0.1793,-0.1743,-0.1745,-0.1747,-0.1815,-0.1816,-0.1816,0,0,0,0,0,0,-0.1713,-0.17,-0.1616,-0.1674,-0.1669,-0.1689,-0.1637,-0.164,-0.1648,-0.168,-0.1685,-0.1662,-0.1706,-0.1713,-0.1736,-0.1794,-0.1746,-0.1749,-0.1815,-0.1816,-0.1816,-0.1903,0,0,0,0,0,0,-0.1715,-0.1699,-0.1661,-0.1671,-0.1666,-0.1645,-0.1638,-0.1641,-0.1657,-0.1658,-0.1686,-0.1693,-0.1707,-0.1732,-0.1738,-0.1796,-0.175,-0.1814,-0.1815,-0.1816,-0.19,-0.1907,-0.1913,0,0,0,0,0,-0.1719,-0.1676,-0.1657,-0.1648,-0.161,-0.1647,-0.1651,-0.1666,-0.1657,-0.167,-0.1674,-0.1692,-0.1742,-0.1734,-0.1741,-0.1801,-0.1814,-0.1815,-0.1816,-0.1897,-0.1906,-0.1913,0,0,0,0,0,0,-0.1699,-0.1673,-0.1654,-0.1597,-0.1627,-0.1651,-0.1664,-0.1668,-0.1679,-0.1678,-0.1692,-0.1699,-0.1735,-0.1744,-0.1734,-0.1818,-0.1784,-0.1786,-0.1843,-0.1851,-0.1858,-0.1886,-0.1752,0,0,0,0,0,-0.1677,-0.1644,-0.1645,-0.1607,-0.1619,-0.1637,-0.165,-0.1665,-0.1682,-0.1687,-0.1708,-0.1725,-0.1742,-0.1776,-0.1782,-0.1837,-0.1829,-0.1878,-0.1884,-0.189,-0.1914,-0.1948,-0.1961,-0.182,-0.182,-0.182,0,0,-0.1661,-0.1645,-0.1624,-0.1605,-0.1622,-0.1662,-0.1645,-0.1676,-0.1721,-0.1694,-0.1748,-0.1737,-0.175,-0.1802,-0.1823,-0.1827,-0.1916,-0.1891,-0.1897,-0.1918,-0.1951,-0.1965,-0.1978,-0.182,-0.182,-0.182,0,0,-0.1661,-0.1598,-0.1595,-0.162,-0.1653,-0.1678,-0.1689,-0.172,-0.1744,-0.1784,-0.1772,-0.1791,-0.183,-0.1862,-0.1879,-0.1924,-0.1927,-0.193,-0.2025,-0.2058,-0.2071,-0.2082,-0.2052,-0.206,-0.1963,-0.1963,-0.1964,0,-0.1651,-0.1624,-0.161,-0.1637,-0.1663,-0.1689,-0.1725,-0.1766,-0.1805,-0.1822,-0.1814,-0.185,-0.1865,-0.1934,-0.1963,-0.1947,-0.1942,-0.2001,-0.207,-0.2082,-0.2092,-0.2059,-0.2067,-0.1968,-0.1967,-0.1967,-0.1966,0,-0.1661,-0.1657,-0.1669,-0.17,-0.1729,-0.1768,-0.1822,-0.1864,-0.1885,-0.191,-0.1955,-0.1967,-0.1991,-0.2011,-0.2015,-0.2104,-0.2063,-0.2053,-0.206,-0.2112,-0.2072,-0.2079,-0.1974,-0.1972,-0.1971,-0.197,0,0,-0.1605,-0.1662,-0.1671,-0.1693,-0.1762,-0.1784,-0.1875,-0.1941,-0.1974,-0.203,-0.207,-0.2129,-0.2116,-0.2134,-0.2141,-0.2206,-0.2266,-0.2189,-0.2188,-0.2174,-0.2304,-0.2092,-0.2078,-0.2282,-0.2285,-0.2287,-0.2233,0,-0.1628,-0.1679,-0.1708,-0.1777,-0.1806,-0.1861,-0.1932,-0.1994,-0.2037,-0.2087,-0.2132,-0.2156,-0.2173,-0.2177,-0.2252,-0.2249,-0.2295,-0.2279,-0.2242,-0.224,-0.206,-0.2084,-0.1925,-0.1849,-0.2239,-0.224,-0.2241,0,-0.1627,-0.1665,-0.1723,-0.1794,-0.1809,-0.1861,-0.1938,-0.2,-0.209,-0.2122,-0.218,-0.2188,-0.2283,-0.2276,-0.2352,-0.2344,-0.2343,-0.2349,-0.2346,-0.2132,-0.2043,-0.1865,-0.1847,-0.2252,-0.2251,-0.225,-0.225,0,-0.158,-0.1669,-0.1709,-0.1734,-0.1827,-0.1864,-0.1916,-0.1998,-0.2046,-0.2134,-0.2162,-0.2246,-0.2267,-0.2331,-0.2338,-0.2359,-0.2388,-0.2397,-0.22,-0.2183,-0.203,-0.1993,-0.2454,-0.2454,-0.2454,-0.2454,-0.2454,0,-0.1573,-0.16,-0.1689,-0.1708,-0.1753,-0.1819,-0.1868,-0.1939,-0.2031,-0.2049,-0.2162,-0.2179,-0.2292,-0.2309,-0.2342,-0.2262,-0.2377,-0.2214,-0.2167,-0.2044,-0.2011,-0.2356,-0.2346,-0.2452,-0.2452,-0.2453,-0.2453,0,-0.1501,-0.1564,-0.1605,-0.1701,-0.1729,-0.1748,-0.1843,-0.1873,-0.1975,-0.201,-0.204,-0.2142,-0.212,-0.2179,-0.2222,-0.2203,-0.2184,-0.2125,-0.1932,-0.1863,-0.1959,-0.1954,-0.1913,-0.1905,-0.1899,-0.1893,-0.1889,0,-0.1477,-0.1491,-0.1573,-0.159,-0.1632,-0.1681,-0.1715,-0.1833,-0.1846,-0.1946,-0.1936,-0.196,-0.1916,-0.1891,-0.1848,-0.1808,-0.1956,-0.1639,-0.1652,-0.1951,-0.1911,-0.1915,-0.1919,-0.148,-0.1472,-0.1466,-0.1461,0,-0.1421,-0.1438,-0.1453,-0.1492,-0.1527,-0.1564,-0.1604,-0.1629,-0.1718,-0.1763,-0.1758,-0.1746,-0.166,-0.1524,-0.1445,-0.1414,-0.1636,-0.1503,-0.1901,-0.1613,-0.1531,-0.1494,-0.1515,-0.1406,-0.1412,-0.1416,-0.1419,-0.1421,-0.1356,-0.1342,-0.1356,-0.1373,-0.1408,-0.1419,-0.1403,-0.1441,-0.1457,-0.1465,-0.1514,-0.1444,-0.1403,-0.1169,-0.1102,-0.1052,-0.1176,-0.1176,-0.1202,-0.1233,-0.1165,-0.1073,-0.0847,-0.085,-0.0851,-0.0853,-0.0855,0,-0.1291,-0.1262,-0.1251,-0.1244,-0.1222,-0.1296,-0.13,-0.1249,-0.121,-0.1237,-0.1219,-0.1016,-0.0906,-0.0882,-0.0711,-0.0669,-0.0742,-0.0643,-0.0777,-0.0826,-0.0872,-0.0795,-0.0375,-0.0374,-0.0373,-0.0372,0,0,-0.1249,-0.1186,-0.116,-0.1063,-0.1067,-0.1011,-0.1002,-0.0928,-0.0909,-0.0836,-0.08,-0.0881,-0.0856,-0.0646,-0.0572,-0.0464,-0.0659,-0.0418,-0.0793,-0.1002,-0.1048,-0.1148,-0.1077,0,0,0,0,0]},{"header":{"parameterUnit":"m.s-1","parameterCategory":2,"la1":30.2991,"la2":30.254,"lo1":-89.0895,"lo2":-89.0444,"dy":0.0017,"dx":0.0017,"nx":28,"ny":28,"refTime":"2024-06-24T21:00:00:Z","depth":"2","parameterNumber":3,"parameterNumberName":"V-component_of_CURRENTS"},"data":[0,0,0,0,0,0,0,0,0,0,0,0,0,0,0,0,0,0,0,0,0,0,0,0,0,0,0,0,0,0,0,0,0,0,0,0,0,0,0,0,0,0,0,0,0,0,0,0,0,0,0,0,0,0,0,0,0,0,0.003,0.0031,0,0.0096,0.0097,0.0098,0.0135,0.0135,0.0135,0.0135,0.0302,0.0306,0.031,0,0,0,0,0,0,0,0,0,0,0,0,0,-0.0023,-0.0022,0.003,0.0031,0.0032,0.0096,0.0097,0.0098,0.0135,0.0135,0.0135,0.0135,0.0301,0.0306,0.0311,0,0,0,0,0,0,0,0,0,0,0,0,0,0.0016,-0.0022,0.003,0.0059,0.0062,0.0096,0.0097,0.0098,0.0135,0.0135,0.0135,0.0136,0.0299,0.0305,0.0312,0.0343,0,0,0.0331,0.0334,0,0,0,0,0,0,0,0,0.0014,0.0018,0.0054,0.0057,0.0061,0.0109,0.014,0.0186,0.0134,0.0106,0.0135,0.0136,0.0248,0.0258,0.0266,0.0351,0.0358,0.0331,0.0335,0.0338,0.034,0,0,0,0,0,0,0,0.0011,0.0015,0.0055,0.0055,0.0059,0.0084,0.0089,0.0148,0.0174,0.0108,0.0111,0.0121,0.025,0.026,0.0271,0.0361,0.0331,0.0337,0.0341,0.0343,0.0428,0.0427,0,0,0,0,0,0,0.0003,0.0013,0.0053,0.0057,0.0039,0.0084,0.009,0.0092,0.0172,0.0184,0.0121,0.0122,0.0249,0.0263,0.0277,0.0309,0.0338,0.0344,0.0347,0.043,0.0428,0.0426,0,0,0,0,0,0,0.0002,0.0006,0.005,0.0038,0.0046,0.0084,0.0086,0.0093,0.0106,0.018,0.0194,0.0127,0.025,0.0268,0.0309,0.0317,0.0347,0.0352,0.0432,0.0429,0.0427,0.0381,0,0,0,0,0,0,-0.0,0.0004,0.0001,0.0037,0.0046,0.0065,0.0086,0.0094,0.0112,0.0115,0.0191,0.0206,0.0252,0.0299,0.0316,0.0326,0.0357,0.0433,0.043,0.0428,0.0384,0.0377,0.0371,0,0,0,0,0,-0.0003,-0.0008,-0.0,0.0005,0.004,0.0064,0.0071,0.0099,0.0112,0.0113,0.0151,0.0204,0.0292,0.0303,0.0323,0.0335,0.0435,0.0431,0.0428,0.0387,0.0379,0.0371,0,0,0,0,0,0,-0.0031,-0.0004,0.0006,0.0009,0.0032,0.0071,0.0077,0.0097,0.0127,0.0131,0.0197,0.0214,0.0246,0.0288,0.0299,0.0343,0.0368,0.0369,0.0331,0.0323,0.0317,0.032,0.0363,0,0,0,0,0,-0.0041,-0.0038,-0.0007,-0.0004,0.0005,0.0039,0.0053,0.0071,0.0105,0.0118,0.0167,0.0211,0.0245,0.0282,0.0314,0.0358,0.0434,0.037,0.0363,0.0358,0.0368,0.051,0.052,0.0415,0.0415,0.0415,0,0,-0.0049,-0.0034,-0.0032,-0.001,0.001,0.001,0.0048,0.0065,0.0067,0.0135,0.0153,0.0191,0.0245,0.0275,0.0295,0.0319,0.0415,0.0354,0.0349,0.0363,0.0508,0.0519,0.0529,0.0413,0.0413,0.0413,0,0,-0.007,-0.0055,-0.0063,-0.0053,-0.0028,-0.0007,-0.0005,0.003,0.0047,0.0069,0.0106,0.0149,0.0205,0.025,0.0279,0.0259,0.0365,0.0261,0.0257,0.0394,0.0406,0.0417,0.0485,0.0503,0.0273,0.0273,0.0273,0,-0.0083,-0.0096,-0.006,-0.0071,-0.007,-0.002,-0.0037,-0.001,0.0032,0.0053,0.0063,0.0151,0.0195,0.0254,0.0234,0.0252,0.0328,0.0289,0.0392,0.0405,0.0418,0.0486,0.0506,0.0271,0.0271,0.0271,0.0271,0,-0.0113,-0.0129,-0.0132,-0.0134,-0.0124,-0.0129,-0.0093,-0.0074,-0.0047,-0.0011,0.0044,0.0109,0.0168,0.0181,0.0205,0.0299,0.032,0.0362,0.0425,0.0427,0.0496,0.0518,0.0267,0.0268,0.0268,0.0269,0,0,-0.0138,-0.0154,-0.016,-0.0182,-0.0164,-0.0162,-0.0149,-0.012,-0.0102,-0.0042,0.0002,0.0061,0.0118,0.0152,0.0206,0.0322,0.0449,0.0377,0.0385,0.0464,0.0723,0.0664,0.0683,0.0535,0.0539,0.0543,0.0722,0,-0.0179,-0.0228,-0.0217,-0.0261,-0.0285,-0.0245,-0.0238,-0.0198,-0.0148,-0.009,0.0013,0.0067,0.0103,0.014,0.0261,0.0418,0.0513,0.0394,0.0692,0.0699,0.0667,0.0709,0.0605,0.0752,0.0745,0.0749,0.0751,0,-0.022,-0.0251,-0.0307,-0.0336,-0.034,-0.0351,-0.0325,-0.0311,-0.021,-0.0165,-0.0065,0.0022,0.0178,0.0207,0.0504,0.0437,0.0559,0.0678,0.069,0.0675,0.0684,0.0755,0.0794,0.079,0.0787,0.0784,0.0781,0,-0.0268,-0.0317,-0.0368,-0.0381,-0.0394,-0.0403,-0.04,-0.0333,-0.0308,-0.0196,-0.0134,0.0043,0.0167,0.0374,0.0594,0.0576,0.0925,0.0934,0.0983,0.0978,0.0965,0.0952,0.1127,0.1126,0.1126,0.1126,0.1125,0,-0.0322,-0.0364,-0.0399,-0.0431,-0.0481,-0.0461,-0.0476,-0.0444,-0.0361,-0.0304,-0.0168,-0.0055,0.023,0.0451,0.0622,0.0878,0.0956,0.0994,0.1041,0.0934,0.0917,0.1014,0.0998,0.1132,0.1131,0.1129,0.1128,0,-0.0362,-0.0387,-0.0454,-0.0494,-0.0509,-0.0543,-0.0544,-0.0534,-0.0446,-0.0354,-0.0309,-0.0069,0.0217,0.0464,0.0815,0.0919,0.1153,0.1202,0.1013,0.1033,0.1096,0.1075,0.1292,0.1292,0.1292,0.1292,0.1292,0,-0.0388,-0.0427,-0.0509,-0.0552,-0.0576,-0.0616,-0.0632,-0.0589,-0.0562,-0.0353,-0.0297,-0.0016,0.0197,0.0651,0.0863,0.1134,0.1177,0.1174,0.1108,0.1099,0.1124,0.1103,0.1083,0.1062,0.106,0.1059,0.1057,0,-0.0436,-0.0464,-0.0516,-0.0608,-0.0656,-0.0703,-0.0716,-0.0703,-0.0604,-0.0486,-0.0266,-0.0071,0.0314,0.0595,0.0894,0.1026,0.1122,0.1146,0.1274,0.1008,0.089,0.091,0.0898,0.1043,0.1045,0.1046,0.1046,0.1047,-0.0461,-0.051,-0.0579,-0.0659,-0.0719,-0.0762,-0.078,-0.074,-0.0666,-0.0435,-0.0247,0.0065,0.0298,0.071,0.087,0.099,0.1045,0.1083,0.1087,0.1092,0.1005,0.0891,0.1025,0.1026,0.1027,0.1028,0.1029,0,-0.0495,-0.0547,-0.0624,-0.0713,-0.0774,-0.0798,-0.0812,-0.0784,-0.068,-0.0382,-0.0131,0.0104,0.0395,0.062,0.0779,0.0903,0.0874,0.0912,0.0867,0.088,0.0893,0.0793,0.0759,0.0759,0.0759,0.0758,0,0,-0.0514,-0.0587,-0.0626,-0.0733,-0.0791,-0.0845,-0.0849,-0.0768,-0.0589,-0.0317,-0.0075,0.0275,0.0484,0.0542,0.0668,0.0737,0.0782,0.0715,0.092,0.0867,0.0878,0.0976,0.0836,0,0,0,0,0]}],[{"header":{"parameterUnit":"m.s-1","parameterCategory":2,"la1":30.2991,"la2":30.254,"lo1":-89.0895,"lo2":-89.0444,"dy":0.0017,"dx":0.0017,"nx":28,"ny":28,"refTime":"2024-06-24T21:00:00:Z","depth":"4","parameterNumber":2,"parameterNumberName":"U-component_of_CURRENTS"},"data":[0,0,0,0,0,0,0,0,0,0,0,0,0,0,0,0,0,0,0,0,0,0,0,0,0,0,0,0,0,0,0,0,0,0,0,0,0,0,0,0,0,0,0,0,0,0,0,0,0,0,0,0,0,0,0,0,0,0,-0.113,-0.1131,0,-0.1207,-0.1208,-0.1209,-0.1237,-0.1237,-0.1237,-0.1237,-0.1268,-0.1269,-0.127,0,0,0,0,0,0,0,0,0,0,0,0,0,-0.1017,-0.1018,-0.113,-0.1131,-0.1132,-0.1207,-0.1208,-0.1209,-0.1237,-0.1237,-0.1237,-0.1237,-0.1267,-0.1269,-0.127,0,0,0,0,0,0,0,0,0,0,0,0,0,-0.1076,-0.1019,-0.113,-0.1156,-0.1159,-0.1207,-0.1208,-0.1209,-0.1237,-0.1237,-0.1237,-0.1237,-0.1267,-0.1268,-0.127,-0.1283,0,0,-0.1274,-0.1275,0,0,0,0,0,0,0,0,-0.1072,-0.108,-0.1151,-0.1154,-0.1158,-0.1213,-0.118,-0.1232,-0.1237,-0.1206,-0.1237,-0.1237,-0.1246,-0.1249,-0.1263,-0.1284,-0.1286,-0.1274,-0.1275,-0.1276,-0.1276,0,0,0,0,0,0,0,-0.1068,-0.1077,-0.1159,-0.1152,-0.1156,-0.1168,-0.1175,-0.119,-0.1225,-0.1209,-0.1212,-0.1222,-0.1248,-0.1262,-0.1264,-0.1286,-0.1274,-0.1276,-0.1276,-0.1277,-0.1378,-0.138,0,0,0,0,0,0,-0.1061,-0.1073,-0.1157,-0.1162,-0.1115,-0.117,-0.1179,-0.1195,-0.1226,-0.1231,-0.1222,-0.1223,-0.126,-0.1262,-0.1265,-0.1327,-0.1276,-0.1277,-0.1278,-0.1376,-0.1378,-0.138,0,0,0,0,0,0,-0.1059,-0.1068,-0.1154,-0.1119,-0.1131,-0.1172,-0.119,-0.1197,-0.123,-0.1237,-0.1241,-0.1251,-0.126,-0.1263,-0.13,-0.1326,-0.1278,-0.1279,-0.1374,-0.1377,-0.1379,-0.1421,0,0,0,0,0,0,-0.1055,-0.1067,-0.1088,-0.1119,-0.1133,-0.1198,-0.1191,-0.1198,-0.1236,-0.1238,-0.1262,-0.1263,-0.126,-0.1298,-0.1302,-0.1327,-0.128,-0.1372,-0.1375,-0.1378,-0.1417,-0.1425,-0.1431,0,0,0,0,0,-0.1051,-0.1083,-0.1089,-0.11,-0.1157,-0.12,-0.1208,-0.1235,-0.1237,-0.1261,-0.1278,-0.1264,-0.1322,-0.1301,-0.1304,-0.1331,-0.137,-0.1374,-0.1378,-0.1414,-0.1423,-0.1431,0,0,0,0,0,0,-0.1046,-0.109,-0.1097,-0.1141,-0.1173,-0.1205,-0.1237,-0.1248,-0.1281,-0.1288,-0.1286,-0.129,-0.1329,-0.1331,-0.1308,-0.1373,-0.1345,-0.135,-0.1371,-0.1379,-0.1386,-0.1361,-0.1281,0,0,0,0,0,-0.1053,-0.1092,-0.1124,-0.1162,-0.1181,-0.1211,-0.1235,-0.1252,-0.128,-0.1296,-0.1309,-0.1329,-0.1348,-0.1364,-0.1379,-0.1417,-0.139,-0.1439,-0.1446,-0.1452,-0.1436,-0.142,-0.1423,-0.1394,-0.1394,-0.1394,0,0,-0.1062,-0.1093,-0.1115,-0.1165,-0.1193,-0.1227,-0.1226,-0.1273,-0.13,-0.1293,-0.1341,-0.1351,-0.1363,-0.1403,-0.1421,-0.1409,-0.1451,-0.1457,-0.1461,-0.1442,-0.1425,-0.1427,-0.1429,-0.1397,-0.1396,-0.1396,0,0,-0.1094,-0.1127,-0.1165,-0.1195,-0.1243,-0.126,-0.1276,-0.1317,-0.1338,-0.1382,-0.1381,-0.1405,-0.1447,-0.1452,-0.1461,-0.1517,-0.1484,-0.1535,-0.1554,-0.154,-0.1541,-0.1542,-0.1522,-0.152,-0.1543,-0.1544,-0.1544,0,-0.1105,-0.115,-0.1182,-0.1223,-0.1248,-0.1274,-0.1309,-0.1339,-0.1385,-0.1398,-0.1405,-0.1452,-0.1464,-0.1493,-0.1516,-0.1529,-0.1513,-0.1519,-0.1545,-0.1545,-0.1545,-0.1524,-0.1522,-0.1546,-0.1546,-0.1545,-0.1545,0,-0.1151,-0.1194,-0.1222,-0.1275,-0.1307,-0.1347,-0.138,-0.1414,-0.1437,-0.1454,-0.1493,-0.151,-0.1529,-0.1549,-0.1551,-0.1568,-0.1554,-0.1549,-0.1515,-0.155,-0.1527,-0.1524,-0.155,-0.1549,-0.1548,-0.1547,0,0,-0.1153,-0.1238,-0.1248,-0.1272,-0.1337,-0.136,-0.1412,-0.145,-0.147,-0.1514,-0.1531,-0.1574,-0.1572,-0.158,-0.1588,-0.1584,-0.158,-0.1572,-0.157,-0.1536,-0.1543,-0.1456,-0.1444,-0.1579,-0.1578,-0.1578,-0.1531,0,-0.1177,-0.1247,-0.1285,-0.1342,-0.1374,-0.1411,-0.1448,-0.1485,-0.1516,-0.1541,-0.1557,-0.158,-0.1589,-0.1598,-0.1597,-0.158,-0.1572,-0.1592,-0.1528,-0.1526,-0.143,-0.1437,-0.1577,-0.1528,-0.1527,-0.1527,-0.1526,0,-0.12,-0.1242,-0.1304,-0.136,-0.1376,-0.1412,-0.1456,-0.1494,-0.1534,-0.1556,-0.158,-0.1588,-0.1599,-0.1596,-0.1575,-0.1589,-0.1566,-0.155,-0.1548,-0.1441,-0.1431,-0.1485,-0.152,-0.152,-0.1521,-0.1521,-0.1522,0,-0.1162,-0.1248,-0.1292,-0.1317,-0.1389,-0.1415,-0.1447,-0.1495,-0.1511,-0.1559,-0.1563,-0.1588,-0.1581,-0.157,-0.1554,-0.1562,-0.1514,-0.1519,-0.1417,-0.1411,-0.1484,-0.1484,-0.1487,-0.1487,-0.1487,-0.1487,-0.1487,0,-0.1156,-0.119,-0.1279,-0.13,-0.1332,-0.1393,-0.1419,-0.146,-0.1498,-0.1491,-0.1558,-0.1535,-0.1571,-0.1555,-0.1545,-0.1465,-0.1507,-0.1403,-0.1386,-0.1508,-0.151,-0.1482,-0.1482,-0.1485,-0.1486,-0.1486,-0.1486,0,-0.1101,-0.1169,-0.1216,-0.1296,-0.1317,-0.1336,-0.1385,-0.1392,-0.1451,-0.144,-0.145,-0.1485,-0.1454,-0.1485,-0.1456,-0.1426,-0.1382,-0.1346,-0.1472,-0.1466,-0.129,-0.1293,-0.121,-0.1206,-0.1203,-0.1201,-0.1198,0,-0.1077,-0.1102,-0.119,-0.1203,-0.1239,-0.1275,-0.1285,-0.1354,-0.135,-0.1378,-0.1348,-0.1351,-0.1361,-0.125,-0.1306,-0.1287,-0.1278,-0.1263,-0.1272,-0.1265,-0.1258,-0.1267,-0.1274,-0.1194,-0.1193,-0.1192,-0.1191,0,-0.1017,-0.1062,-0.1096,-0.1124,-0.1146,-0.116,-0.1179,-0.1163,-0.1215,-0.1276,-0.1196,-0.1183,-0.1146,-0.1146,-0.1154,-0.1142,-0.128,-0.123,-0.1236,-0.1245,-0.1245,-0.1243,-0.1254,-0.118,-0.1182,-0.1183,-0.1184,0,-0.0966,-0.0971,-0.1018,-0.1028,-0.1051,-0.1029,-0.1057,-0.103,-0.1036,-0.1074,-0.1031,-0.1051,-0.1089,-0.1067,-0.1066,-0.1062,-0.1044,-0.1027,-0.1043,-0.1056,-0.1036,-0.1015,-0.0846,0,0,0,0,0,-0.0907,-0.09,-0.0907,-0.0914,-0.0931,-0.0941,-0.0973,-0.1003,-0.1047,-0.0949,-0.0988,-0.0946,-0.0926,-0.0947,-0.0911,-0.1025,-0.1074,-0.0983,-0.1069,-0.1121,-0.1134,-0.1129,0,0,0,0,0,0,-0.0863,-0.0879,-0.0878,-0.0814,-0.0791,-0.0793,-0.0812,-0.0847,-0.0801,-0.0851,-0.0837,-0.0886,-0.0884,-0.0916,-0.0883,-0.0897,-0.0933,-0.1012,-0.1009,-0.1114,-0.1125,-0.1135,-0.1135,0,0,0,0,0]},{"header":{"parameterUnit":"m.s-1","parameterCategory":2,"la1":30.2991,"la2":30.254,"lo1":-89.0895,"lo2":-89.0444,"dy":0.0017,"dx":0.0017,"nx":28,"ny":28,"refTime":"2024-06-24T21:00:00:Z","depth":"4","parameterNumber":3,"parameterNumberName":"V-component_of_CURRENTS"},"data":[0,0,0,0,0,0,0,0,0,0,0,0,0,0,0,0,0,0,0,0,0,0,0,0,0,0,0,0,0,0,0,0,0,0,0,0,0,0,0,0,0,0,0,0,0,0,0,0,0,0,0,0,0,0,0,0,0,0,-0.0015,-0.0014,0,0.0037,0.0038,0.0038,0.0049,0.0048,0.0048,0.0048,0.0084,0.0085,0.0086,0,0,0,0,0,0,0,0,0,0,0,0,0,-0.0097,-0.0095,-0.0015,-0.0014,-0.0013,0.0037,0.0038,0.0039,0.0049,0.0048,0.0048,0.0047,0.0084,0.0085,0.0087,0,0,0,0,0,0,0,0,0,0,0,0,0,-0.0055,-0.0095,-0.0015,-0.0002,0.0,0.0037,0.0038,0.0039,0.0049,0.0048,0.0048,0.0047,0.0083,0.0085,0.0087,0.0108,0,0,0.0093,0.0093,0,0,0,0,0,0,0,0,-0.0058,-0.0052,-0.0004,-0.0002,-0.0,0.0037,0.0023,0.0062,0.0049,0.0029,0.0048,0.0047,0.0068,0.0071,0.0081,0.011,0.0112,0.0093,0.0094,0.0095,0.0095,0,0,0,0,0,0,0,-0.0061,-0.0055,0.0005,-0.0003,-0.0001,0.0005,0.001,0.003,0.005,0.0031,0.0032,0.0039,0.0068,0.0079,0.0082,0.0112,0.0093,0.0094,0.0096,0.0096,0.0181,0.0182,0,0,0,0,0,0,-0.0065,-0.0057,0.0003,0.0007,-0.003,0.0007,0.0013,0.0025,0.005,0.0054,0.004,0.004,0.0076,0.0079,0.0083,0.0109,0.0095,0.0097,0.0098,0.018,0.0181,0.0182,0,0,0,0,0,0,-0.0067,-0.006,0.0001,-0.0024,-0.0016,0.0009,0.0022,0.0026,0.0037,0.0057,0.006,0.0047,0.0076,0.008,0.011,0.011,0.0097,0.0099,0.0179,0.018,0.0182,0.0162,0,0,0,0,0,0,-0.0069,-0.0061,-0.0054,-0.0024,-0.0014,0.0022,0.0023,0.0027,0.0043,0.0043,0.0064,0.0067,0.0076,0.0107,0.0112,0.0113,0.0101,0.0177,0.0179,0.0181,0.0161,0.0162,0.0164,0,0,0,0,0,-0.0072,-0.0059,-0.0054,-0.0047,-0.0006,0.0023,0.0028,0.0043,0.0043,0.0051,0.0071,0.0066,0.0124,0.011,0.0115,0.0116,0.0176,0.0179,0.0181,0.016,0.0162,0.0164,0,0,0,0,0,0,-0.0083,-0.0055,-0.005,-0.0026,-0.0005,0.0025,0.0035,0.0045,0.0067,0.0067,0.0083,0.0088,0.0112,0.0126,0.0111,0.015,0.0149,0.0152,0.0131,0.0133,0.0134,0.011,0.0102,0,0,0,0,0,-0.0083,-0.0071,-0.0042,-0.0023,-0.0014,0.001,0.0023,0.0033,0.0057,0.0066,0.0082,0.0105,0.0128,0.0139,0.016,0.0184,0.0204,0.019,0.0192,0.0192,0.0179,0.0216,0.0219,0.019,0.019,0.019,0,0,-0.0083,-0.0065,-0.0058,-0.0026,-0.001,-0.0003,0.0016,0.0036,0.0041,0.0067,0.0081,0.0109,0.0137,0.0161,0.0173,0.0171,0.0217,0.0196,0.0196,0.0182,0.0219,0.0221,0.0223,0.0192,0.0192,0.0192,0,0,-0.0083,-0.0059,-0.0057,-0.0045,-0.0022,-0.0005,-0.0001,0.0028,0.004,0.0065,0.0084,0.0116,0.0148,0.0169,0.0183,0.0209,0.0223,0.0218,0.0203,0.0239,0.0241,0.0242,0.0291,0.0298,0.0218,0.0218,0.0218,0,-0.0086,-0.0081,-0.005,-0.005,-0.005,-0.0011,-0.0019,0.0008,0.0043,0.0051,0.0065,0.0122,0.0148,0.0176,0.0187,0.0208,0.0235,0.0189,0.0238,0.024,0.0242,0.0292,0.0299,0.0218,0.0218,0.0218,0.0218,0,-0.0092,-0.0094,-0.009,-0.0085,-0.0073,-0.007,-0.004,-0.0022,-0.0001,0.0022,0.0058,0.0107,0.0135,0.0159,0.018,0.021,0.0229,0.0233,0.0226,0.0243,0.0296,0.0303,0.0217,0.0217,0.0217,0.0217,0,0,-0.0097,-0.0099,-0.0103,-0.0123,-0.01,-0.0096,-0.0079,-0.0059,-0.0057,-0.0004,0.0004,0.0067,0.0096,0.0116,0.0155,0.0194,0.0248,0.0218,0.022,0.0252,0.034,0.032,0.0327,0.0259,0.026,0.026,0.0377,0,-0.0122,-0.0149,-0.0136,-0.0167,-0.0183,-0.0154,-0.0146,-0.0119,-0.0086,-0.006,0.0006,0.0033,0.008,0.0095,0.0144,0.0216,0.0264,0.0217,0.0329,0.0333,0.0301,0.0333,0.0263,0.0383,0.0385,0.0386,0.0387,0,-0.0144,-0.0163,-0.0203,-0.0231,-0.0235,-0.0241,-0.0237,-0.0225,-0.0169,-0.0141,-0.0091,-0.0038,0.0034,0.0068,0.0201,0.0168,0.0249,0.0312,0.0318,0.0304,0.0326,0.036,0.0401,0.04,0.0399,0.0398,0.0397,0,-0.0186,-0.0217,-0.0258,-0.0267,-0.0277,-0.029,-0.0291,-0.0253,-0.0249,-0.0193,-0.0177,-0.0085,-0.0035,0.0069,0.0215,0.0204,0.0368,0.0367,0.0432,0.0433,0.0422,0.0419,0.0459,0.0459,0.0458,0.0458,0.0458,0,-0.0224,-0.026,-0.0285,-0.031,-0.0358,-0.0345,-0.0374,-0.0355,-0.0324,-0.0312,-0.0227,-0.0183,-0.0033,0.0084,0.0205,0.0349,0.0365,0.0431,0.0457,0.0417,0.0411,0.0429,0.0424,0.0462,0.0461,0.0461,0.046,0,-0.0259,-0.0276,-0.0332,-0.0366,-0.0382,-0.0416,-0.0441,-0.045,-0.0414,-0.0393,-0.0378,-0.0251,-0.0093,0.0072,0.0262,0.0331,0.047,0.0521,0.0484,0.0506,0.0514,0.0507,0.0583,0.0584,0.0584,0.0584,0.0584,0,-0.0278,-0.0308,-0.0379,-0.0417,-0.0437,-0.0482,-0.0506,-0.0497,-0.05,-0.0422,-0.041,-0.0259,-0.0152,0.0114,0.0271,0.0494,0.052,0.0574,0.0523,0.0507,0.0525,0.0518,0.0511,0.0584,0.0584,0.0584,0.0584,0,-0.0312,-0.0339,-0.0385,-0.0463,-0.0511,-0.0562,-0.0593,-0.0599,-0.0564,-0.0539,-0.0414,-0.0268,-0.0086,0.0118,0.0299,0.0454,0.0519,0.0576,0.0576,0.0528,0.0509,0.0525,0.0518,0.0585,0.0585,0.0585,0.0585,0,-0.0333,-0.0375,-0.0436,-0.0503,-0.0567,-0.0608,-0.0625,-0.0604,-0.0597,-0.0503,-0.0455,-0.0246,-0.0123,0.01,0.0267,0.0414,0.0431,0.0439,0.0446,0.0448,0.0361,0.0314,0.0353,0,0,0,0,0,-0.0346,-0.0397,-0.0466,-0.0543,-0.0604,-0.0635,-0.0664,-0.0664,-0.0631,-0.0547,-0.0498,-0.0316,-0.0059,0.0057,0.0205,0.0244,0.0437,0.0412,0.0446,0.0587,0.0587,0.0505,0,0,0,0,0,0,-0.0357,-0.0425,-0.047,-0.0556,-0.0604,-0.0665,-0.0678,-0.0656,-0.0603,-0.0541,-0.039,-0.0317,-0.0053,-0.0127,0.0202,0.0245,0.0273,0.0539,0.054,0.0588,0.0587,0.0587,0.0502,0,0,0,0,0]}]]